Regional Weather Roundup
Issued by NWS State College, PA

Home | Current Version | Previous Version | Graphics & Text | Print | Product List | Glossary Off
Versions: 1 2 3 4 5 6 7 8 9 10 11 12 13 14 15 16 17 18 19 20 21 22 23 24 25 26 27 28 29 30 31 32 33 34 35 36 37 38 39 40 41 42 43 44 45 46 47 48 49 50

000
ASUS41 KCTP 071410
RWRCTP

REGIONAL WEATHER ROUNDUP
NATIONAL WEATHER SERVICE STATE COLLEGE PA
900 AM EST WED DEC 07 2016

Note: "fair" indicates few or no clouds below 12,000 feet with no
significant weather and/or obstructions to visibility.

* = STATION THAT DOES NOT REPORT PRECIPITATION /E.G. RAIN...SNOW...ETC/
    THUNDER OR FOG.

PAZ002>004-007>009-013>016-020>023-029>032-071500-
WESTERN PENNSYLVANIA

CITY           SKY/WX    TMP DP  RH WIND       PRES   REMARKS
ERIE           CLOUDY    36  27  69 SW14      30.01R
MEADVILLE      PTSUNNY   32  25  75 SW10      30.00R
FRANKLIN*        N/A     32  25  74 W7        30.02R
NEW CASTLE     FAIR      32  28  85 SW7       30.06R
BEAVER COUNTY  SUNNY     32  28  86 W8        30.05R
BUTLER*        MOSUNNY   34  27  75 SW6       30.07S
PITTSBURGH INT PTSUNNY   35  29  78 W9        30.06R
PITTSBURGH     PTSUNNY   34  27  75 W8        30.05R
INDIANA*       PTSUNNY   36  30  80 W8G16     30.06R
LATROBE        NOT AVBL
WASHINGTON CO* PTSUNNY   34  27  75 SW9       30.08S
$$

PAZ004>006-010>012-017>019-024>028-033>037-041-042-045-046-049>053-071500-
CENTRAL PENNSYLVANIA

CITY           SKY/WX    TMP DP  RH WIND       PRES   REMARKS
BRADFORD       CLOUDY    33  28  81 W8        29.94R
DUBOIS         PTSUNNY   33  28  81 W12       29.99R HAZE
CLEARFIELD     CLOUDY    35  31  85 SW8       30.01R
JOHNSTOWN      PTSUNNY   32  28  85 W15G24    29.98R
ALTOONA        PTSUNNY   38  29  70 NW6       30.02R
STATE COLLEGE  MOSUNNY   37  32  81 W9        30.01R
WILLIAMSPORT   CLOUDY    37  36  96 CALM      29.99R FOG
SELINSGROVE    CLOUDY    38  38 100 CALM      30.01R FOG
FT INDIANTOWN  CLOUDY    38  38 100 CALM      30.00R FOG
CAPITAL CITY   MOSUNNY   40  38  93 W5        30.02R FOG
HARRISBURG     CLOUDY    40  39  97 W5        30.02R FOG
YORK           CLOUDY    38  38 100 CALM      30.01R FOG
$$

PAZ038>040-043-044-047-048-054-055-060>062-067>071-071500-
EASTERN PENNSYLVANIA

CITY           SKY/WX    TMP DP  RH WIND       PRES   REMARKS
SCRANTON       CLOUDY    36  35  96 S5        29.96S
MOUNT POCONO   CLOUDY    32  32 100 W5        29.93S FOG
ALLENTOWN      CLOUDY    39  36  89 CALM      30.00S
QUAKERTOWN*    CLOUDY    37  37 100 CALM      30.00S
READING        CLOUDY    39  37  92 CALM      29.99F
LANCASTER      CLOUDY    40  40 100 VRB5      30.00R FOG
COATESVILLE    CLOUDY    39  37  93 CALM      30.00S FOG
POTTSTOWN      PTSUNNY   39  38  96 CALM      30.01S
BLUE BELL      CLOUDY    37  36  93 CALM      29.99S
DOYLESTOWN     CLOUDY    39  38  96 VRB5      30.00R FOG
WILLOW GROVE   NOT AVBL
NORTH PHILA    CLOUDY    41  38  89 NW9       30.02R FOG
PHILADELPHIA   CLOUDY    41  39  93 N10       30.02R
$$




USA.gov is the U.S. government's official web portal to all federal, state and local government web resources and services.